Regional Weather Roundup
Issued by NWS

Home | Current Version | Previous Version | Graphics & Text | Print | Product List | Glossary On
Versions: 1 2 3 4 5 6 7 8 9 10 11 12 13 14 15 16 17 18 19 20 21 22 23 24 25 26 27 28 29 30 31 32 33 34 35 36 37 38 39 40 41 42 43 44 45 46 47 48 49 50
000
ASUS45 KBOU 180007
RWRCO

WEATHER ROUNDUP FOR COLORADO
NATIONAL WEATHER SERVICE DENVER/BOULDER CO
500 PM MST WED DEC 17 2014

NOTE: "FAIR" INDICATES FEW OR NO CLOUDS BELOW 12000 FEET WITH NO
SIGNIFICANT WEATHER AND/OR OBSTRUCTIONS TO VISIBILITY.

COZ001>005-013-030-031-180100-
...NORTHWEST COLORADO...

CITY           SKY/WX    TMP DP  RH WIND       PRES   REMARKS
CRAIG          CLOUDY    29  26  89 SW8       29.98R WCI  21
HAYDEN         MOCLDY    27  23  86 W5        29.97S WCI  21
MEEKER         CLOUDY    28  26  92 SW3       29.97R FOG
MOUNT WERNER   NOT AVBL
STEAMBOAT SPGS CLOUDY    28  28  99 CALM      29.96R
WALDEN         MOCLDY    23  19  86 N10       29.94R WCI  12
$$

COZ006>008-011-180100-
...WEST CENTRAL VALLEYS...

CITY           SKY/WX    TMP DP  RH WIND       PRES   REMARKS
GRAND JUNCTION CLOUDY    36  35  96 NW3       29.97R
MONTROSE       MOCLDY    38  31  76 NW8       29.97R
EAGLE          CLOUDY    28  25  86 CALM      29.99R
RIFLE          CLOUDY    36  31  82 W5        29.96R
DELTA          CLOUDY    40  37  86 SW6       29.96S
NUCLA          CLOUDY    37  32  81 W6        30.00R
$$

COZ017>023-064>068-180100-
...SOUTHWEST COLORADO...

CITY           SKY/WX    TMP DP  RH WIND       PRES   REMARKS
DURANGO        LGT SNOW  33  32  96 SW7       29.97R FOG     WCI  27
CORTEZ         MIX PCPN  35  34  96 MISG      29.99R
PAGOSA SPRINGS LGT SNOW  32  31  94 CALM      29.97S
TELLURIDE      SNOW      28  28 100 W7        29.96R VSB 1/4 WCI  21
WOLF CREEK PAS SNOW      16  16 100 MISG      29.95R VSB 1/2
$$

COZ009-010-012-014-032>034-037-058>063-180100-
...CENTRAL COLORADO...

CITY           SKY/WX    TMP DP  RH WIND       PRES   REMARKS
ASPEN          LGT SNOW  30  28  92 CALM      29.93R FOG
BUENA VISTA    MOCLDY    31  21  67 CALM      29.92R
COPPER MTN     SNOW      21  16  79 W18       29.94R VSB 1/2 WCI   6
BERTHOUD PASS  SNOW      12   9  85 MISG      29.95R VSB<1/4
COTTONWOOD PAS MOCLDY    30  25  80 CALM      29.93R
GUNNISON       MOCLDY    27  18  69 CALM      29.98R
KREMMLING      LGT SNOW  23  19  86 CALM      29.97S
LEADVILLE      CLOUDY    22  19  89 N3        29.92R
MONARCH PASS   LGT SNOW  16  14  93 MISG      30.03S
SALIDA         MOCLDY    35  24  63 SW7       29.98S WCI  29
SUNLIGHT       SNOW      23  23 100 CALM      29.96S VSB 1/2
WILKERSON PASS LGT SNOW  21  18  86 N3        29.95S VSB 1
$$

COZ069>075-180100-
...SAN LUIS VALLEY/SANGRE DE CRISTO MOUNTAINS...

CITY           SKY/WX    TMP DP  RH WIND       PRES   REMARKS
ALAMOSA        CLOUDY    28  24  85 S3        29.95R
LA VETA PASS   CLOUDY    21  19  93 S8        29.92R FOG     WCI  12
SAGUACHE       MOCLDY    27  23  86 CALM      29.95S
$$

COZ035-036-038>040-180100-
...NORTHERN COLORADO FRONT RANGE...

CITY           SKY/WX    TMP DP  RH WIND       PRES   REMARKS
DENVER INTL AP CLOUDY    33  27  78 E6        29.92R WCI  28
DMNS CITY PARK   N/A     38  26  61 N3        29.92S
AURORA         CLOUDY    35  24  63 NE5       29.93R WCI  31
FRONT RANGE AP NOT AVBL
ERIE MUNI ARPT   N/A     34  24  69 CALM      29.93R
BOULDER MUN AP CLOUDY    36  25  64 CALM      29.93R
CENTENNIAL     CLOUDY    37  25  61 N6        29.91R
BROOMFIELD     CLOUDY    37  27  65 MISG      29.93R
FORT COLLINS   CLOUDY    34  21  60 E5        29.95R WCI  30
LONGMONT       CLOUDY    37  26  65 CALM      29.95R
$$

COZ041-046-047-076>085-087-088-180100-
...PIKES PEAK/PALMER DIVIDE AND SOUTHERN FOOTHILLS...

CITY           SKY/WX    TMP DP  RH WIND       PRES   REMARKS
COLO. SPRINGS  MOCLDY    35  32  88 NW6       29.92R WCI  30
A. F. ACADEMY  MOCLDY    33  33  99 NW2       29.91S
ELLICOTT       NOT AVBL
FALCON         CLOUDY    32  28  84 NW5       29.92S WCI  28
FORT CARSON    MOCLDY    35  33  90 N7        29.90S WCI  30
LIMON          CLOUDY    32  25  75 CALM      29.91S
MONUMENT HILL  CLOUDY    32  30  93 CALM      29.91R
TRINIDAD       MOCLDY    31  24  75 E6        29.92R WCI  25
$$

COZ042>045-048>051-090-091-180100-
...NORTHEAST COLORADO...

CITY           SKY/WX    TMP DP  RH WIND       PRES   REMARKS
GREELEY ARPT   CLOUDY    27  18  69 E5        29.93F WCI  21
AKRON          CLOUDY    23  22  96 SE7       29.95S WCI  15
BURLINGTON     CLOUDY    25  23  92 SE6       29.98S FOG     WCI  18
WRAY           CLOUDY   N/A N/A N/A E6        30.03R FOG
STERLING       CLOUDY    27  27 100 CALM      29.99R
HOLYOKE        NOT AVBL
FORT MORGAN    CLOUDY    17  14  89 CALM      29.97R
$$

COZ086-089-092>099-180100-
...SOUTHEAST COLORADO...

CITY           SKY/WX    TMP DP  RH WIND       PRES   REMARKS
PUEBLO         MOCLDY    31  21  66 SE6       29.93R WCI  25
LA JUNTA       CLOUDY    28  24  85 E6        29.97R WCI  22
LAMAR          CLOUDY    29  26  89 N5        29.96S WCI  24
SPRINGFIELD      N/A     28  24  85 NW10      29.94R WCI  19
$$


USA.gov is the U.S. government's official web portal to all federal, state and local government web resources and services.